Home > Weather > Guadalajara > Past weeks

Flag for Mexico Weather for the Past 2 Weeks in Guadalajara, Jalisco, Mexico

Now
70 °F

Clear.


Feels Like: 70 °F
Forecast: 59 / 93 °F
Wind: No wind

Location: Don Miguel / Guadalaj

Current Time: May 3, 2016 at 2:55:52 AM

Latest Report: May 3, 2016 at 12:51 AM


Visibility: 10 mi

Pressure: 29.72 "Hg (24.84 "Hg at 1543m altitude)

Humidity: 27%

Dew Point: 34 °F

Location of GuadalajaraLocation

Historic Weather in Guadalajara — Graph

°F

Guadalajara Temperature Yesterday

Maximum temperature yesterday: 93 °F (at 3:47 PM)
Minimum temperature yesterday: 52 °F (at 6:04 AM)
Average temperature yesterday: 75 °F

High & Low Weather Summary for the Past Weeks

 TemperatureHumidityPressure
High93 °F (May 2, 3:47 PM)77% (Apr 19, 7:50 AM)30.25 "Hg (Apr 19, 7:50 AM)
Low45 °F (Apr 27, 6:46 AM)3% (Apr 30, 3:49 PM)29.62 "Hg (May 2, 3:47 PM)
Average71 °F27%29.99 "Hg
* Reported Apr 18 12:52 AM — May 3 12:51 AM, Guadalajara, Weather by CustomWeather, © 2016

Note: Actual official high and low records may vary slightly from our data, if they occured in-between our weather recording intervals... More about our weather records

Advertising

Guadalajara Weather History for the Previous 24 Hours

Scroll right to see more
 ConditionsComfort  
Time TempWeatherWind HumidityBarometerVisibility
12:51 AM
Tue, May 3
70 °FClear.No wind27%29.72 "Hg10 mi
11:48 PM
Mon, May 2
77 °FClear.9 mph24%30.11 "Hg10 mi
7:47 PM90 °FSunny.8 mph10%29.99 "Hg8 mi
6:48 PM93 °FSunny.8 mph8%29.62 "Hg8 mi
5:50 PM93 °FSunny.17 mph8%29.98 "Hg7 mi
4:48 PM93 °FSunny.15 mph8%29.99 "Hg7 mi
3:47 PM93 °FSunny.5 mph7%29.62 "Hg7 mi
2:45 PM91 °FSunny.3 mph8%30.05 "Hg7 mi
1:48 PM90 °FSunny.No wind10%30.08 "Hg7 mi
12:45 PM86 °FSunny.No wind11%29.74 "Hg7 mi
11:48 AM82 °FSunny.3 mph15%30.13 "Hg7 mi
10:45 AM79 °FSunny.6 mph17%30.14 "Hg7 mi
9:49 AM73 °FPassing clouds.No wind20%29.78 "Hg7 mi
8:45 AM63 °FPassing clouds.No wind32%30.13 "Hg8 mi
6:51 AM52 °FClear.2 mph47%29.75 "Hg10 mi
6:04 AM52 °FClear.No wind47%30.08 "Hg10 mi
4:54 AM55 °FClear.No wind41%30.08 "Hg10 mi
4:07 AM55 °FClear.3 mph41%30.07 "Hg10 mi
3:16 AM59 °FClear.No wind34%30.08 "Hg10 mi
2:01 AM61 °FClear.No wind29%30.11 "Hg10 mi
Weather by CustomWeather, © 2016

See weather overviewHow to use our weather pages